Overview Statistics Trail Chart Weather Telemetry Raw packets
 

This is the latest recevied weather packets stored in our database for station/object HB9FHL-13. If no packets are shown the sender has not sent any weather packets the latest 10 day(s).

<< 63 64 65 66 67 68 69 >>
Time Temp. Humidity Pressure Rain* Wind** Luminosity Snow
1788292626 18.33° C - 1023 hPa 0 mm - - -
1788292325 18.89° C - 1021.8 hPa 0 mm - - -
1788292025 18.33° C - 1023.1 hPa 0 mm - - -
1788291724 18.89° C - 1023.5 hPa 0 mm - - -
1788291424 18.33° C - 1021.5 hPa 0 mm - - -
1788291126 18.89° C - 1022.2 hPa 0 mm - - -
1788290822 19.44° C - 1024.1 hPa 0 mm - - -
1788290522 18.89° C - 1021.4 hPa 0 mm - - -
1788290221 19.44° C - 1021.8 hPa 0 mm - - -
1788289921 19.44° C - 1024.3 hPa 0 mm - - -
1788289620 19.44° C - 1023.7 hPa 0 mm - - -
1788289320 20° C - 1025 hPa 0 mm - - -
1788289019 18.89° C - 1024.2 hPa 0 mm - - -
1788288719 20° C - 1024 hPa 0 mm - - -
1788288418 18.89° C - 1022.2 hPa 0 mm - - -
1788288118 18.89° C - 1023.4 hPa 0 mm - - -
1788287817 18.89° C - 1025.6 hPa 0 mm - - -
1788287517 18.89° C - 1023.1 hPa 0 mm - - -
1788287216 18.89° C - 1020.5 hPa 0 mm - - -
1788286916 19.44° C - 1025.1 hPa 0 mm - - -
1788286615 18.89° C - 1024.5 hPa 0 mm - - -
1788286315 18.89° C - 1023.1 hPa 0 mm - - -
1788286014 18.89° C - 1023.3 hPa 0 mm - - -
1788285714 19.44° C - 1025.1 hPa 0 mm - - -
1788285413 19.44° C - 1023.5 hPa 0 mm - - -

* Rain since midnight (hover to see other rain measurements)
** Current wind speed in m/s (hover to see current wind gust speed)